Home   Weather   Wittenberge   Past weeks

Flag for Germany Past Weather in Wittenberge, Mecklenburg-Western Pomerania, Germany — Yesterday and Last 2 Weeks

45 °F

Drizzle. Fog.

Feels Like: 42 °F
Forecast: 40 / 49 °F
Wind: 5 mph from East

Location: Fassberg

Current Time: Oct 25, 2016 at 8:53:17 AM

Latest Report: Oct 25, 2016 at 8:20 AM

Visibility: 1 mi

Pressure: 30.09 "Hg

Humidity: 93%

Dew Point: 43 °F

Location of WittenbergeLocation

Past Weather in Wittenberge — Graph


Wittenberge Temperature Yesterday

Maximum temperature yesterday: 45 °F (at 1:20 PM)
Minimum temperature yesterday: 34 °F (at 2:20 AM)
Average temperature yesterday: 41 °F

High & Low Weather Summary for the Past Weeks

High63 °F (Oct 16, 2:20 PM)100% (Oct 10, 7:20 AM)30.27 "Hg (Oct 10, 7:20 AM)
Low34 °F (Oct 24, 2:20 AM)54% (Oct 10, 3:20 PM)29.77 "Hg (Oct 15, 5:20 AM)
Average47 °F89%30.04 "Hg
* Reported Oct 10 7:20 AM — Oct 25 7:20 AM, Wittenberge, Weather by CustomWeather, © 2016

Note: Actual official high and low records may vary slightly from our data, if they occured in-between our weather recording intervals... More about our weather records


Wittenberge Weather History for the Previous 24 Hours

Scroll right to see more
Time TempWeatherWind HumidityBarometerVisibility
7:20 AM
Tue, Oct 25
45 °FDrizzle. Fog.3 mph93%30.09 "Hg1 mi
6:20 AM45 °FDrizzle. Fog.3 mph93%30.07 "Hg1 mi
5:20 AM45 °FLight rain. Fog.5 mph93%30.07 "Hg1 mi
4:20 AM45 °FFog.3 mph93%30.04 "Hg1 mi
3:20 AM45 °FFog.6 mph93%30.04 "Hg1 mi
2:20 AM45 °FFog.6 mph93%30.04 "Hg1 mi
1:20 AM45 °FFog.3 mph93%30.04 "Hg1 mi
12:20 AM45 °FFog.7 mph93%30.04 "Hg1 mi
11:20 PM
Mon, Oct 24
45 °FDrizzle. Fog.5 mph93%30.04 "Hg1 mi
10:20 PM45 °FDrizzle. Fog.6 mph93%30.04 "Hg1 mi
9:20 PM45 °FFog.6 mph93%30.04 "Hg1 mi
8:20 PM45 °FDrizzle. Fog.7 mph93%30.01 "Hg1 mi
7:20 PM45 °FDrizzle. Fog.8 mph87%30.01 "Hg2 mi
6:20 PM45 °FFog.7 mph87%30.04 "Hg2 mi
5:20 PM45 °FPartly sunny.8 mph87%30.01 "Hg4 mi
4:20 PM45 °FPartly sunny.8 mph87%30.01 "Hg4 mi
3:20 PM45 °FPartly sunny.10 mph87%30.01 "Hg4 mi
3:00 PM45 °FFog.10 mph87%30.01 "Hg3 mi
2:20 PM45 °FFog.10 mph93%30.01 "Hg2 mi
1:20 PM45 °FFog.10 mph93%30.01 "Hg1 mi
12:20 PM43 °FFog.8 mph100%30.04 "Hg1 mi
11:50 AM43 °FFog.8 mph100%30.04 "Hg1 mi
11:20 AM43 °FFog.9 mph93%30.04 "Hg1 mi
10:56 AM41 °FFog.7 mph100%30.04 "Hg1 mi
10:20 AM41 °FFog.6 mph93%30.04 "Hg1 mi
9:20 AM39 °FFog.7 mph100%30.01 "Hg0 mi
8:20 AM39 °FFog.6 mph100%30.01 "Hg0 mi
Weather by CustomWeather, © 2016

See weather overviewHow to use our weather pages